Flag for Germany Weather past 2 weeks in Heilbronn, Baden-Württemberg, Germany

Now
66 °F

Overcast.


Feels Like: 66 °F
Forecast: 55 / 63 °F
Wind: 1 mph from South

Location: Oehringen

Current Time: Aug 30, 2014 at 10:41:54 PM

Latest Report: Aug 30, 2014 at 10:00 PM


Visibility: 25 mi

Pressure: 30.05 "Hg

Humidity: 71%

Dew point: 56 °F

Location of HeilbronnLocation

Historic Weather in Heilbronn — Graph

°F

Heilbronn temperature yesterday

Maximum temperature yesterday: 74 °F (at 5:00 PM)
Minimum temperature yesterday: 61 °F (at 4:00 AM)
Average temperature yesterday: 67 °F

Past Weeks' High & Low Weather Summary

 TemperatureHumidityPressure
High75 °F (Aug 28, 5:00 PM)97% (Aug 26, 11:00 PM)30.16 "Hg (Aug 26, 11:00 PM)
Low48 °F (Aug 20, 7:00 AM)34% (Aug 22, 6:00 PM)29.67 "Hg (Aug 26, 8:00 AM)
Average60 °F73%29.99 "Hg
* Reported Aug 15 9:00 PM — Aug 30 9:00 PM, Heilbronn, Weather by CustomWeather, © 2014

Note: Actual official high and low records may vary slightly from our data, if they occured in-between our weather recording intervals... More about our weather records

Advertising

Heilbronn weather history for previous 24 hours

 ConditionsComfort  
Time TempWeatherWind HumidityBarometerVisibility
9:00 PM
Aug 30
67 °FOvercast.2 mph63%30.04 "Hg19 mi
7:00 PM70 °FOvercast.3 mph56%30.03 "Hg37 mi
6:00 PM72 °FPassing clouds.6 mph48%30.03 "Hg37 mi
5:00 PM72 °FSunny.5 mph52%30.04 "Hg28 mi
4:00 PM72 °FSunny.6 mph52%30.05 "Hg19 mi
3:00 PM71 °FOvercast.5 mph52%30.07 "Hg19 mi
2:00 PM71 °FPassing clouds.3 mph52%30.08 "Hg19 mi
1:00 PM69 °FPartly sunny.3 mph58%30.10 "Hg37 mi
12:00 PM69 °FOvercast.5 mph61%30.11 "Hg43 mi
11:00 AM67 °FOvercast.2 mph65%30.11 "Hg28 mi
10:00 AM64 °FPartly sunny.3 mph74%30.11 "Hg25 mi
9:00 AM63 °FPartly sunny.3 mph80%30.11 "Hg22 mi
8:00 AM62 °FOvercast.2 mph85%30.10 "Hg16 mi
7:00 AM60 °FOvercast.1 mph94%30.09 "Hg9 mi
6:00 AM60 °FLow clouds.3 mph94%30.09 "Hg9 mi
5:00 AM60 °FPassing clouds.2 mph93%30.08 "Hg9 mi
4:00 AM60 °FOvercast.1 mph93%30.08 "Hg13 mi
3:00 AM60 °FOvercast.1 mph93%30.07 "Hg11 mi
2:00 AM61 °FPassing clouds.1 mph91%30.07 "Hg16 mi
1:00 AM61 °FOvercast.2 mph89%30.06 "Hg14 mi
12:00 AM63 °FOvercast.1 mph82%30.05 "Hg22 mi
Weather by CustomWeather, © 2014

See weather overviewHow to use our weather pages